Location: Guilderland
(42.7045°N, 73.9115°W)
Time: 03:18:12
(UTC+00:00)

Cosmos 2263 Rocket - Pass Details

Date: 24 January 2020
Orbit: 823 x 849 km, 71.0° (Epoch: 16 February)

Event Time Altitude Azimuth Distance (km) Brightness Sun altitude
Rises 22:55:08 0° 144° (SE) 3,344 5.1 -10.6°
Reaches altitude 10° 22:59:56 10° 106° (ESE) 2,423 4.1 -11.5°
Enters shadow 23:00:00 10° 106° (ESE) 2,418 4.1 -11.5°
